Deming, NM

11:39 PM MDT on April 24, 2017 (GMT -0600)
Deming Municipal

Weather History for KDMN - July, 2013

Change the Weather History Date:

Sunday, July 14, 2013

  Actual Average Record
Temperature  
Mean Temperature 84 °F 81 °F  
Max Temperature 99 °F 96 °F 107 °F (1948)
Min Temperature 71 °F 66 °F 56 °F (1992)
Cooling Degree Days 20    
Growing Degree Days 34 (Base 50)    
Moisture  
Dew Point 54 °F    
Average Humidity 38    
Maximum Humidity 68    
Minimum Humidity 18    
Precipitation  
Precipitation 0.00 in 0.07 in 0.86 in (1952)
Month to date precipitation 0.87  
Year to date precipitation 3.98  
Sea Level Pressure  
Sea Level Pressure 29.79 in    
Wind  
Wind Speed 9 mph (WNW)    
Max Wind Speed 28 mph    
Max Gust Speed 38 mph    
Visibility 10 miles    
Events Thunderstorm    
T = Trace of Precipitation, MM = Missing Value Source: NWS Daily Summary

Daily Weather History Graph

Daily Weather History Graph

Search for Another Location

Airport or City:

Trip Planner

Search our weather history database for the weather conditions in past years. The results will help you decide how hot, cold, wet, or windy it might be!

Date:

Astronomy

Jul. 14, 2013 Rise Set
Actual Time 6:14 AM MDT 8:18 PM MDT
Civil Twilight 5:46 AM MDT 8:46 PM MDT
Nautical Twilight 5:12 AM MDT 9:20 PM MDT
Astronomical Twilight 4:36 AM MDT 9:56 PM MDT
Moon 12:09 PM MDT (7/14) 11:59 PM MDT (7/14)
Length of Visible Light 14h 59m
Length of Day
14h 04m
Waxing Crescent, 35% of the Moon is Illuminated
Jul 14
Waxing Crescent
Jul 15
First Quarter
Jul 22
Full
Jul 29
Last Quarter
Aug 6
New

Hourly Weather History & Observations

Time (MDT) Temp. Heat Index Dew Point Humidity Pressure Visibility Wind Dir Wind Speed Gust Speed Precip Events Conditions
12:13 AM 80.6 °F 80.5 °F 55.4 °F 42% 30.07 in 10.0 mi SSE 10.4 mph - N/A Thunderstorm Mostly Cloudy
12:33 AM 80.6 °F 80.8 °F 57.2 °F 45% 30.09 in 10.0 mi SSW 9.2 mph - N/A   Overcast
12:53 AM 79.0 °F - 57.0 °F 47% 29.83 in 10.0 mi SE 3.5 mph - N/A   Overcast
1:53 AM 79.0 °F - 57.0 °F 47% 29.79 in 10.0 mi South 6.9 mph - 0.00 in   Clear
2:53 AM 75.0 °F - 59.0 °F 57% 29.80 in 10.0 mi Calm Calm - N/A   Partly Cloudy
3:53 AM 72.0 °F - 61.0 °F 68% 29.83 in 10.0 mi South 10.4 mph - N/A   Mostly Cloudy
4:53 AM 73.0 °F - 60.1 °F 64% 29.83 in 10.0 mi West 11.5 mph - N/A   Clear
5:53 AM 71.1 °F - 59.0 °F 66% 29.84 in 10.0 mi West 11.5 mph - N/A   Clear
6:53 AM 71.1 °F - 59.0 °F 66% 29.83 in 10.0 mi WNW 10.4 mph - N/A   Clear
7:53 AM 75.0 °F - 59.0 °F 57% 29.83 in 10.0 mi NW 5.8 mph - N/A   Clear
8:53 AM 80.1 °F 80.7 °F 59.0 °F 48% 29.83 in 10.0 mi WNW 6.9 mph - N/A   Clear
9:53 AM 84.9 °F 83.3 °F 54.0 °F 34% 29.81 in 10.0 mi North 5.8 mph - N/A   Clear
10:53 AM 89.1 °F - 51.1 °F 27% 29.81 in 10.0 mi ENE 5.8 mph - N/A   Clear
11:53 AM 91.9 °F - 52.0 °F 26% 29.79 in 10.0 mi ENE 6.9 mph - N/A   Clear
12:53 PM 93.0 °F - 50.0 °F 23% 29.78 in 10.0 mi Variable 3.5 mph - N/A   Clear
1:53 PM 93.9 °F - 48.9 °F 21% 29.74 in 10.0 mi Variable 3.5 mph - N/A   Clear
2:53 PM 96.1 °F - 48.9 °F 20% 29.71 in 10.0 mi West 8.1 mph - N/A   Partly Cloudy
3:53 PM 97.0 °F - 46.0 °F 18% 29.68 in 10.0 mi Calm Calm - N/A   Clear
4:53 PM 98.1 °F - 46.9 °F 18% 29.65 in 10.0 mi SW 8.1 mph - N/A   Clear
5:53 PM 97.0 °F - 46.0 °F 18% 29.65 in 10.0 mi West 8.1 mph - N/A   Scattered Clouds
6:32 PM 96.8 °F - 48.2 °F 19% 29.90 in 10.0 mi West 10.4 mph - N/A Thunderstorm Scattered Clouds
6:53 PM 95.0 °F - 48.9 °F 21% 29.65 in 10.0 mi WNW 15.0 mph 24.2 mph N/A   Scattered Clouds
7:53 PM 90.0 °F - 52.0 °F 27% 29.66 in 10.0 mi NW 15.0 mph 26.5 mph N/A   Clear
8:53 PM 87.1 °F 85.1 °F 54.0 °F 32% 29.66 in 10.0 mi NW 12.7 mph 20.7 mph N/A   Clear
9:53 PM 84.9 °F 83.6 °F 55.0 °F 36% 29.69 in 10.0 mi NW 10.4 mph - N/A   Clear
10:53 PM 84.0 °F 83.0 °F 55.9 °F 38% 29.69 in 10.0 mi WNW 8.1 mph - N/A   Clear
11:53 PM 84.9 °F 83.3 °F 54.0 °F 34% 29.71 in 8.0 mi NNE 27.6 mph 38.0 mph N/A   Mostly Cloudy
11:58 PM 82.4 °F 81.7 °F 55.4 °F 39% 29.99 in 5.0 mi NNE 27.6 mph 38.0 mph N/A   Haze